Location: Tel Aviv
(32.0670°N, 34.7670°E)
Time: 16:03:27
(UTC+02:00)

ZACube-1 - Visible Passes

Search period start: 21 March 2023 00:00
Search period end: 31 March 2023 01:00
Orbit: 578 x 654 km, 97.7° (Epoch: 20 March)

Date Brightness Start Highest point End Pass type
(mag) Time Alt. Az. Time Alt. Az. Time Alt. Az.
22 Mar ? 03:01:50 10° NNE 03:02:06 12° NNE 03:02:06 12° NNE visible
23 Mar ? 03:17:58 10° N 03:18:28 13° N 03:18:28 13° N visible
24 Mar ? 04:34:16 10° N 04:34:49 13° NNW 04:34:49 13° NNW visible
25 Mar ? 04:50:45 10° NNW 04:51:10 12° NNW 04:51:10 12° NNW visible
26 Mar ? 03:30:24 10° NNE 03:30:25 10° NNE 03:30:25 10° NNE visible
27 Mar ? 03:46:10 10° NNE 03:46:45 14° NNE 03:46:45 14° NNE visible
28 Mar ? 04:02:06 10° NNE 04:03:04 17° NNE 04:03:04 17° NNE visible
29 Mar ? 04:18:12 10° N 04:19:22 18° N 04:19:22 18° N visible
30 Mar ? 04:34:26 10° N 04:35:40 18° NNW 04:35:40 18° NNW visible
